User: anonymous   Login
Location: Shepherdstown, WV
(39.4326°N, 77.8042°W)
Time: 10:51:40
(UTC-05:00)
Language:

FENGYUN 1C DEB - Orbit

View from above orbital plane
View from above orbital plane
View from above satellite
View from above satellite

Ground track
Ground track

The orbit data is extracted from the following two-line orbital elements,

1 29801U 99025CT  21332.06117528  .00000076  00000-0  42609-4 0  9994
2 29801  98.9634 171.1847 0106106 280.7177 231.9087 14.33815516777947
Epoch (UTC): 28 November 2021 01:28:05
Eccentricity: 0.0106106
inclination: 98.9634°
perigee height: 703 km
apogee height: 855 km
right ascension of ascending node: 171.1847°
argument of perigee: 280.7177°
revolutions per day: 14.33815516
mean anomaly at epoch: 231.9087°
orbit number at epoch: 77794

The dashed part of the orbit path shows where the satellite is in the earth's shadow,  

DLR